HAKODATE_AIRPORT current weather conditions

sailwx.info

Wind from 300 at 7 knots

Air temperature -4.0° C
Visibility: greater than 5.4 NM
Dewpoint -9.0° C
Present weather: Light snow showers.

Last reported at 2020-Jan-25 11:00 UTC.
Time now 2020-Jan-25 15:13 UTC

Location: N 41°46' E 140°49'.
View on Google Maps.

See reports from other nearby stations

  
Tides and Currents Weather Stations Pressure Air Temp Water Temp Dewpoint Dewpoint Depression Visibility Wind Speed Wind Dir Waves Ship Positions
date/time (UTC)wind fromknots sea level pressurealtimeterstation pressurevisibilityair tempwater tempwave heightnotes
2020-Jan-25 11:00 300 7 5.4-4.0 Light snow showers.
2020-Jan-25 10:00 290 8 5.4-4.0 Light snow showers.
2020-Jan-25 09:00 300 7 5.4-4.0 Light snow showers.
2020-Jan-25 08:00 300 12 5.4-4.0
2020-Jan-25 07:00 290 14 5.4-3.0
2020-Jan-25 06:00 300 13 5.4-3.0 Light snow showers.
2020-Jan-25 05:00 310 9 5.4-2.0 Light snow showers.
2020-Jan-25 04:20 270 15 2.7-2.0 Light snow showers.
2020-Jan-25 04:17 280 17 2.6-2.0 Light snow showers.
2020-Jan-25 04:00 280 19 5.4-2.0 Light snow showers.
2020-Jan-25 03:30 270 17 gusting 27 5.4-1.0 Light snow showers.
2020-Jan-25 03:00 280 13 5.4-1.0 Light snow showers.
2020-Jan-25 02:00 270 13 5.4-3.0 Light snow showers.
2020-Jan-25 01:00 290 11 5.4-3.0 Light snow showers.
2020-Jan-25 00:00 300 9 5.4-4.0 Light snow showers.
2020-Jan-24 23:00 290 11 5.4-5.0
2020-Jan-24 22:00 290 7 5.4-5.0
2020-Jan-24 21:10 310 7 5.4-5.0
2020-Jan-24 11:00 290 6 3.8-4.0 Light snow showers.
2020-Jan-24 10:00 310 9 4.3-4.0 Light snow showers.
2020-Jan-24 09:00 300 13 5.4-4.0 Light snow showers.
2020-Jan-24 08:05 300 15 gusting 26 5.4-4.0 Light snow showers.
2020-Jan-24 08:00 300 18 5.4-4.0 Light snow showers.
2020-Jan-24 07:15 280 15 gusting 26 5.4-3.0 Light snow showers.
2020-Jan-24 07:00 300 19 5.4-3.0 Light snow showers.
2020-Jan-24 06:11 300 20 gusting 29 5.4-2.0 Light snow showers.
2020-Jan-24 06:00 290 21 5.4-2.0 Light snow showers.
2020-Jan-24 05:08 270 26 gusting 38 5.4-1.0
2020-Jan-24 05:00 270 26 5.4-1.0
2020-Jan-24 04:00 270 20 5.4-0.0
2020-Jan-24 03:00 280 20 gusting 31 5.4 1.0
2020-Jan-24 02:04 290 18 gusting 28 5.4-0.0
2020-Jan-24 02:00 300 18 5.4-0.0
2020-Jan-24 01:02 290 15 gusting 26 5.4 1.0
2020-Jan-24 01:00 290 17 5.4 1.0
2020-Jan-24 00:00 300 12 4.9 2.0 Light snow showers.
2020-Jan-23 23:21 300 8 2.7 1.0 Light snow showers.
2020-Jan-23 23:15 300 11 1.7 1.0 Light snow showers.
2020-Jan-23 23:11 310 7 gusting 18 1.7 1.0 Light snow showers.
2020-Jan-23 23:08 310 6 2.6 1.0 Light snow showers.
2020-Jan-23 23:00 310 4 4.3 1.0 Light snow showers.
2020-Jan-23 22:00 350 5 5.4-3.0 Light snow showers.
2020-Jan-23 21:10 5.4-0.0 Light snow showers.